Wetterdaten: Freitag, 24.04.2015
Datum Zeit Auen-Temp. Temp gefhlt Luftfeuchte Luftdruck Regen Wind Richtung Richtung Taupunkt Windben
24.04.2015 00:00 2,9 C 2,6 C 75 % 1015,2 hPa 0,0 mm 2,6 km/h (1 Bft) SO 135 -1,1 C 4,1 km/h (1 Bft)
24.04.2015 00:05 2,7 C 2,6 C 75 % 1015,2 hPa 0,0 mm 3,9 km/h (1 Bft) SO 135 -1,3 C 3,4 km/h (1 Bft)
24.04.2015 00:10 2,3 C 2,2 C 75 % 1015,2 hPa 0,0 mm 2,1 km/h (1 Bft) SO 135 -1,7 C 0,0 km/h (0 Bft)
24.04.2015 00:15 2,3 C 2,0 C 75 % 1015,0 hPa 0,0 mm 0,0 km/h (0 Bft) O-SO 112 -1,7 C 0,0 km/h (0 Bft)
24.04.2015 00:20 2,2 C 1,7 C 76 % 1015,0 hPa 0,0 mm 0,0 km/h (0 Bft) S-SO 157 -1,6 C 0,0 km/h (0 Bft)
24.04.2015 00:25 2,1 C 1,6 C 76 % 1015,0 hPa 0,0 mm 0,0 km/h (0 Bft) O-SO 112 -1,7 C 2,6 km/h (1 Bft)
24.04.2015 00:30 1,8 C 1,3 C 78 % 1015,0 hPa 0,0 mm 0,0 km/h (0 Bft) O-SO 112 -1,6 C 0,0 km/h (0 Bft)
24.04.2015 00:35 1,8 C 1,1 C 78 % 1014,9 hPa 0,0 mm 0,0 km/h (0 Bft) O-SO 112 -1,6 C 0,0 km/h (0 Bft)
24.04.2015 00:40 1,9 C 1,1 C 79 % 1014,9 hPa 0,0 mm 0,0 km/h (0 Bft) O 90 -1,3 C 0,0 km/h (0 Bft)
24.04.2015 00:45 1,9 C 1,1 C 79 % 1014,9 hPa 0,0 mm 0,0 km/h (0 Bft) O 90 -1,3 C 0,0 km/h (0 Bft)
24.04.2015 00:50 1,6 C 0,9 C 79 % 1014,9 hPa 0,0 mm 0,0 km/h (0 Bft) O-SO 112 -1,6 C 0,0 km/h (0 Bft)
24.04.2015 00:55 1,5 C 0,8 C 79 % 1015,1 hPa 0,0 mm 0,3 km/h (0 Bft) S-SO 157 -1,7 C 2,8 km/h (1 Bft)
24.04.2015 01:00 1,7 C 1,0 C 80 % 1015,1 hPa 0,0 mm 0,0 km/h (0 Bft) S-SO 157 -1,4 C 0,0 km/h (0 Bft)
24.04.2015 01:05 1,9 C 1,2 C 80 % 1015,1 hPa 0,0 mm 1,3 km/h (1 Bft) SO 135 -1,2 C 5,7 km/h (1 Bft)
24.04.2015 01:10 1,5 C 1,0 C 79 % 1015,1 hPa 0,0 mm 1,6 km/h (1 Bft) NO 45 -1,7 C 3,6 km/h (1 Bft)
24.04.2015 01:15 1,1 C 0,6 C 79 % 1015,0 hPa 0,0 mm 0,5 km/h (0 Bft) SW 225 -2,1 C 2,6 km/h (1 Bft)
24.04.2015 01:20 1,1 C 0,6 C 80 % 1015,0 hPa 0,0 mm 0,3 km/h (0 Bft) O-NO 67 -2,0 C 0,0 km/h (0 Bft)
24.04.2015 01:25 0,9 C 0,4 C 80 % 1015,0 hPa 0,0 mm 0,0 km/h (0 Bft) S 180 -2,2 C 0,0 km/h (0 Bft)
24.04.2015 01:30 0,7 C 0,2 C 80 % 1015,0 hPa 0,0 mm 0,0 km/h (0 Bft) SO 135 -2,3 C 0,0 km/h (0 Bft)
24.04.2015 01:35 0,4 C -0,1 C 79 % 1014,9 hPa 0,0 mm 0,0 km/h (0 Bft) S-SO 157 -2,8 C 0,0 km/h (0 Bft)
24.04.2015 01:40 0,8 C 0,1 C 81 % 1014,9 hPa 0,0 mm 0,5 km/h (0 Bft) S 180 -2,1 C 3,4 km/h (1 Bft)
24.04.2015 01:45 0,9 C 0,4 C 79 % 1014,9 hPa 0,0 mm 0,8 km/h (0 Bft) SO 135 -2,3 C 0,0 km/h (0 Bft)
24.04.2015 01:50 1,0 C 0,4 C 79 % 1014,9 hPa 0,0 mm 0,5 km/h (0 Bft) S-SO 157 -2,2 C 0,0 km/h (0 Bft)
24.04.2015 01:55 1,0 C 0,4 C 84 % 1014,7 hPa 0,0 mm 0,0 km/h (0 Bft) SO 135 -1,4 C 0,0 km/h (0 Bft)
24.04.2015 02:00 0,6 C 0,1 C 84 % 1014,7 hPa 0,0 mm 0,0 km/h (0 Bft) SO 135 -1,8 C 0,0 km/h (0 Bft)
24.04.2015 02:05 0,1 C -0,3 C 83 % 1014,7 hPa 0,0 mm 0,0 km/h (0 Bft) O-SO 112 -2,4 C 0,0 km/h (0 Bft)
24.04.2015 02:10 -0,1 C -0,5 C 82 % 1014,7 hPa 0,0 mm 0,0 km/h (0 Bft) O-SO 112 -2,8 C 0,0 km/h (0 Bft)
24.04.2015 02:15 -0,1 C -0,6 C 82 % 1014,7 hPa 0,0 mm 0,0 km/h (0 Bft) O-SO 112 -2,8 C 0,0 km/h (0 Bft)
24.04.2015 02:20 0,2 C -0,3 C 79 % 1014,7 hPa 0,0 mm 0,0 km/h (0 Bft) S-SO 157 -3,0 C 0,0 km/h (0 Bft)
24.04.2015 02:25 0,4 C -0,2 C 84 % 1014,7 hPa 0,0 mm 0,0 km/h (0 Bft) SO 135 -2,0 C 0,0 km/h (0 Bft)
24.04.2015 02:30 0,4 C -0,2 C 85 % 1014,7 hPa 0,0 mm 0,0 km/h (0 Bft) O-NO 67 -1,8 C 0,0 km/h (0 Bft)
24.04.2015 02:35 0,0 C -0,5 C 84 % 1014,7 hPa 0,0 mm 0,0 km/h (0 Bft) O-NO 67 -2,4 C 0,0 km/h (0 Bft)
24.04.2015 02:40 0,2 C -0,4 C 84 % 1014,7 hPa 0,0 mm 0,0 km/h (0 Bft) O 90 -2,2 C 0,0 km/h (0 Bft)
24.04.2015 02:45 -0,3 C -0,8 C 83 % 1014,7 hPa 0,0 mm 0,0 km/h (0 Bft) O-NO 67 -2,8 C 0,0 km/h (0 Bft)
24.04.2015 02:50 -0,5 C -1,0 C 82 % 1014,7 hPa 0,0 mm 0,0 km/h (0 Bft) O-NO 67 -3,2 C 0,0 km/h (0 Bft)
24.04.2015 02:55 -0,4 C -1,0 C 83 % 1014,6 hPa 0,0 mm 0,0 km/h (0 Bft) O-NO 67 -2,9 C 0,0 km/h (0 Bft)
24.04.2015 03:00 -0,4 C -1,0 C 83 % 1014,6 hPa 0,0 mm 0,0 km/h (0 Bft) O-NO 67 -2,9 C 0,0 km/h (0 Bft)
24.04.2015 03:05 -0,5 C -1,0 C 83 % 1014,6 hPa 0,0 mm 0,0 km/h (0 Bft) O-NO 67 -3,0 C 0,0 km/h (0 Bft)
24.04.2015 03:10 -0,1 C -0,8 C 84 % 1014,6 hPa 0,0 mm 0,0 km/h (0 Bft) O-SO 112 -2,5 C 0,0 km/h (0 Bft)
24.04.2015 03:15 0,1 C -0,7 C 85 % 1014,5 hPa 0,0 mm 0,0 km/h (0 Bft) O-SO 112 -2,1 C 0,0 km/h (0 Bft)
24.04.2015 03:20 -0,1 C -0,8 C 85 % 1014,5 hPa 0,0 mm 0,0 km/h (0 Bft) O-NO 67 -2,3 C 0,0 km/h (0 Bft)
24.04.2015 03:25 -0,3 C -1,0 C 84 % 1014,5 hPa 0,0 mm 0,0 km/h (0 Bft) O-NO 67 -2,7 C 0,0 km/h (0 Bft)
24.04.2015 03:30 -0,2 C -0,9 C 84 % 1014,5 hPa 0,0 mm 0,0 km/h (0 Bft) O-NO 67 -2,6 C 0,0 km/h (0 Bft)
24.04.2015 03:35 -0,5 C -1,1 C 84 % 1014,6 hPa 0,0 mm 0,0 km/h (0 Bft) O-NO 67 -2,9 C 0,0 km/h (0 Bft)
24.04.2015 03:40 -0,8 C -1,3 C 84 % 1014,6 hPa 0,0 mm 0,0 km/h (0 Bft) O-NO 67 -3,2 C 0,0 km/h (0 Bft)
24.04.2015 03:45 -0,9 C -1,4 C 83 % 1014,6 hPa 0,0 mm 0,0 km/h (0 Bft) O-NO 67 -3,4 C 0,0 km/h (0 Bft)
24.04.2015 03:50 -0,9 C -1,4 C 83 % 1014,6 hPa 0,0 mm 0,0 km/h (0 Bft) O-NO 67 -3,4 C 0,0 km/h (0 Bft)
24.04.2015 03:55 -0,9 C -1,4 C 83 % 1014,2 hPa 0,0 mm 0,0 km/h (0 Bft) O-NO 67 -3,4 C 0,0 km/h (0 Bft)
24.04.2015 04:00 -1,2 C -1,7 C 83 % 1014,2 hPa 0,0 mm 0,0 km/h (0 Bft) O-NO 67 -3,7 C 0,0 km/h (0 Bft)
24.04.2015 04:05 -1,2 C -1,7 C 83 % 1014,2 hPa 0,0 mm 0,0 km/h (0 Bft) W 270 -3,7 C 0,0 km/h (0 Bft)
24.04.2015 04:10 -1,0 C -1,5 C 83 % 1014,2 hPa 0,0 mm 0,0 km/h (0 Bft) W 270 -3,5 C 0,0 km/h (0 Bft)
24.04.2015 04:15 -0,9 C -1,5 C 84 % 1014,4 hPa 0,0 mm 0,0 km/h (0 Bft) W 270 -3,3 C 0,0 km/h (0 Bft)
24.04.2015 04:20 -1,2 C -1,7 C 84 % 1014,4 hPa 0,0 mm 0,0 km/h (0 Bft) W-NW 292 -3,5 C 0,0 km/h (0 Bft)
24.04.2015 04:25 -1,2 C -1,7 C 84 % 1014,4 hPa 0,0 mm 0,0 km/h (0 Bft) N-NO 22 -3,5 C 0,0 km/h (0 Bft)
24.04.2015 04:30 -0,9 C -1,5 C 84 % 1014,4 hPa 0,0 mm 0,0 km/h (0 Bft) N-NO 22 -3,3 C 0,0 km/h (0 Bft)
24.04.2015 04:35 -1,0 C -1,6 C 84 % 1014,4 hPa 0,0 mm 0,0 km/h (0 Bft) SO 135 -3,4 C 0,0 km/h (0 Bft)
24.04.2015 04:40 -1,2 C -1,7 C 84 % 1014,4 hPa 0,0 mm 0,0 km/h (0 Bft) O-SO 112 -3,5 C 0,0 km/h (0 Bft)
24.04.2015 04:45 -1,4 C -1,9 C 84 % 1014,4 hPa 0,0 mm 0,0 km/h (0 Bft) SO 135 -3,7 C 0,0 km/h (0 Bft)
24.04.2015 04:50 -1,3 C -1,9 C 84 % 1014,4 hPa 0,0 mm 0,0 km/h (0 Bft) O-SO 112 -3,6 C 0,0 km/h (0 Bft)
24.04.2015 04:55 -1,6 C -2,1 C 84 % 1014,4 hPa 0,0 mm 0,0 km/h (0 Bft) NW 315 -3,9 C 0,0 km/h (0 Bft)
24.04.2015 05:00 -1,6 C -2,1 C 84 % 1014,4 hPa 0,0 mm 0,0 km/h (0 Bft) W 270 -3,9 C 0,0 km/h (0 Bft)
24.04.2015 05:05 -1,4 C -2,0 C 84 % 1014,4 hPa 0,0 mm 0,0 km/h (0 Bft) W 270 -3,7 C 0,0 km/h (0 Bft)
24.04.2015 05:10 -1,3 C -1,9 C 84 % 1014,4 hPa 0,0 mm 0,0 km/h (0 Bft) O-NO 67 -3,6 C 0,0 km/h (0 Bft)
24.04.2015 05:15 -1,5 C -1,9 C 84 % 1014,2 hPa 0,0 mm 0,0 km/h (0 Bft) O-NO 67 -3,8 C 0,0 km/h (0 Bft)
24.04.2015 05:20 -1,5 C -1,8 C 84 % 1014,2 hPa 0,0 mm 0,0 km/h (0 Bft) NO 45 -3,8 C 0,0 km/h (0 Bft)
24.04.2015 05:25 -1,5 C -1,9 C 84 % 1014,2 hPa 0,0 mm 0,0 km/h (0 Bft) NO 45 -3,8 C 0,0 km/h (0 Bft)
24.04.2015 05:30 -1,6 C -2,0 C 84 % 1014,2 hPa 0,0 mm 0,0 km/h (0 Bft) N 360 -3,9 C 0,0 km/h (0 Bft)
24.04.2015 05:35 -1,6 C -2,0 C 84 % 1014,2 hPa 0,0 mm 0,0 km/h (0 Bft) N-NW 337 -3,9 C 0,0 km/h (0 Bft)
24.04.2015 05:40 -1,5 C -2,0 C 85 % 1014,2 hPa 0,0 mm 0,0 km/h (0 Bft) O 90 -3,7 C 0,0 km/h (0 Bft)
24.04.2015 05:45 -1,6 C -2,1 C 85 % 1014,2 hPa 0,0 mm 0,0 km/h (0 Bft) NO 45 -3,8 C 0,0 km/h (0 Bft)
24.04.2015 05:50 -1,9 C -2,3 C 85 % 1014,2 hPa 0,0 mm 0,0 km/h (0 Bft) O-NO 67 -4,1 C 0,0 km/h (0 Bft)
24.04.2015 05:55 -1,8 C -2,2 C 85 % 1014,3 hPa 0,0 mm 0,0 km/h (0 Bft) NO 45 -4,0 C 0,0 km/h (0 Bft)
24.04.2015 06:00 -1,6 C -2,1 C 85 % 1014,3 hPa 0,0 mm 0,0 km/h (0 Bft) NW 315 -3,8 C 0,0 km/h (0 Bft)
24.04.2015 06:05 -1,3 C -1,8 C 85 % 1014,3 hPa 0,0 mm 0,0 km/h (0 Bft) S-SO 157 -3,5 C 0,0 km/h (0 Bft)
24.04.2015 06:10 -1,6 C -2,0 C 85 % 1014,3 hPa 0,0 mm 0,0 km/h (0 Bft) S 180 -3,8 C 0,0 km/h (0 Bft)
24.04.2015 06:15 -1,4 C -1,9 C 85 % 1014,3 hPa 0,0 mm 0,0 km/h (0 Bft) NW 315 -3,6 C 0,0 km/h (0 Bft)
24.04.2015 06:20 -1,7 C -2,1 C 85 % 1014,3 hPa 0,0 mm 0,0 km/h (0 Bft) W 270 -3,9 C 0,0 km/h (0 Bft)
24.04.2015 06:25 -1,6 C -2,0 C 85 % 1014,3 hPa 0,0 mm 0,0 km/h (0 Bft) W-NW 292 -3,8 C 0,0 km/h (0 Bft)
24.04.2015 06:30 -1,6 C -2,0 C 85 % 1014,3 hPa 0,0 mm 0,0 km/h (0 Bft) W 270 -3,8 C 0,0 km/h (0 Bft)
24.04.2015 06:35 -1,6 C -2,0 C 85 % 1014,1 hPa 0,0 mm 0,0 km/h (0 Bft) W-SW 247 -3,8 C 0,0 km/h (0 Bft)
24.04.2015 06:40 -1,4 C -1,8 C 85 % 1014,1 hPa 0,0 mm 0,0 km/h (0 Bft) NW 315 -3,6 C 0,0 km/h (0 Bft)
24.04.2015 06:45 -1,4 C -1,7 C 85 % 1014,1 hPa 0,0 mm 0,0 km/h (0 Bft) NO 45 -3,6 C 0,0 km/h (0 Bft)
24.04.2015 06:50 -1,6 C -1,7 C 85 % 1014,1 hPa 0,0 mm 0,0 km/h (0 Bft) N-NO 22 -3,8 C 0,0 km/h (0 Bft)
24.04.2015 06:55 -1,5 C -1,5 C 85 % 1014,1 hPa 0,0 mm 0,0 km/h (0 Bft) N-NW 337 -3,7 C 0,0 km/h (0 Bft)
24.04.2015 07:00 -1,2 C -1,3 C 85 % 1014,1 hPa 0,0 mm 0,0 km/h (0 Bft) SO 135 -3,4 C 0,0 km/h (0 Bft)
24.04.2015 07:05 -0,7 C -0,9 C 82 % 1014,1 hPa 0,0 mm 0,0 km/h (0 Bft) O-SO 112 -3,4 C 0,0 km/h (0 Bft)
24.04.2015 07:10 -0,6 C -0,9 C 86 % 1014,1 hPa 0,0 mm 0,0 km/h (0 Bft) O 90 -2,6 C 0,0 km/h (0 Bft)
24.04.2015 07:15 -0,6 C -0,8 C 86 % 1014,4 hPa 0,0 mm 0,0 km/h (0 Bft) NO 45 -2,6 C 0,0 km/h (0 Bft)
24.04.2015 07:20 0,0 C -0,2 C 83 % 1014,4 hPa 0,0 mm 0,0 km/h (0 Bft) SO 135 -2,5 C 0,0 km/h (0 Bft)
24.04.2015 07:25 0,5 C 1,2 C 87 % 1014,4 hPa 0,0 mm 0,0 km/h (0 Bft) O-SO 112 -1,4 C 0,0 km/h (0 Bft)
24.04.2015 07:30 0,7 C 3,3 C 83 % 1014,4 hPa 0,0 mm 0,0 km/h (0 Bft) O-NO 67 -1,8 C 0,0 km/h (0 Bft)
24.04.2015 07:35 1,0 C 5,4 C 82 % 1014,4 hPa 0,0 mm 0,0 km/h (0 Bft) N-NW 337 -1,7 C 0,0 km/h (0 Bft)
24.04.2015 07:40 1,6 C 6,4 C 83 % 1014,4 hPa 0,0 mm 0,0 km/h (0 Bft) NW 315 -1,0 C 0,0 km/h (0 Bft)
24.04.2015 07:45 1,9 C 8,7 C 82 % 1014,4 hPa 0,0 mm 0,0 km/h (0 Bft) SO 135 -0,8 C 0,0 km/h (0 Bft)
24.04.2015 07:50 2,3 C 10,1 C 82 % 1014,4 hPa 0,0 mm 0,0 km/h (0 Bft) N-NW 337 -0,4 C 0,0 km/h (0 Bft)
24.04.2015 07:55 3,1 C 11,5 C 81 % 1014,6 hPa 0,0 mm 0,0 km/h (0 Bft) NW 315 0,2 C 0,0 km/h (0 Bft)
24.04.2015 08:00 3,6 C 12,0 C 80 % 1014,6 hPa 0,0 mm 0,0 km/h (0 Bft) O-SO 112 0,5 C 0,0 km/h (0 Bft)
24.04.2015 08:05 4,3 C 13,1 C 79 % 1014,6 hPa 0,0 mm 0,0 km/h (0 Bft) N-NO 22 1,0 C 0,0 km/h (0 Bft)
24.04.2015 08:10 5,0 C 13,8 C 78 % 1014,6 hPa 0,0 mm 0,0 km/h (0 Bft) O 90 1,5 C 0,0 km/h (0 Bft)
24.04.2015 08:15 5,2 C 14,6 C 77 % 1014,7 hPa 0,0 mm 0,0 km/h (0 Bft) W 270 1,5 C 0,0 km/h (0 Bft)
24.04.2015 08:20 6,0 C 15,5 C 75 % 1014,7 hPa 0,0 mm 0,0 km/h (0 Bft) O-NO 67 1,9 C 0,0 km/h (0 Bft)
24.04.2015 08:25 6,3 C 16,3 C 74 % 1014,7 hPa 0,0 mm 0,0 km/h (0 Bft) NO 45 2,0 C 0,0 km/h (0 Bft)
24.04.2015 08:30 6,6 C 16,4 C 73 % 1014,7 hPa 0,0 mm 0,0 km/h (0 Bft) O-SO 112 2,1 C 0,0 km/h (0 Bft)
24.04.2015 08:35 7,0 C 17,1 C 72 % 1014,9 hPa 0,0 mm 0,0 km/h (0 Bft) O-NO 67 2,3 C 0,0 km/h (0 Bft)
24.04.2015 08:40 7,5 C 17,0 C 71 % 1014,9 hPa 0,0 mm 0,0 km/h (0 Bft) N-NO 22 2,6 C 0,0 km/h (0 Bft)
24.04.2015 08:45 7,9 C 17,9 C 70 % 1014,9 hPa 0,0 mm 0,0 km/h (0 Bft) O-NO 67 2,8 C 0,0 km/h (0 Bft)
24.04.2015 08:50 8,3 C 17,9 C 69 % 1014,9 hPa 0,0 mm 0,0 km/h (0 Bft) O-NO 67 3,0 C 0,0 km/h (0 Bft)
24.04.2015 08:55 8,8 C 18,0 C 68 % 1015,0 hPa 0,0 mm 0,0 km/h (0 Bft) N-NO 22 3,2 C 0,0 km/h (0 Bft)
24.04.2015 09:00 9,2 C 17,9 C 67 % 1015,0 hPa 0,0 mm 0,0 km/h (0 Bft) N-NO 22 3,4 C 0,0 km/h (0 Bft)
24.04.2015 09:05 10,1 C 18,9 C 66 % 1015,0 hPa 0,0 mm 0,0 km/h (0 Bft) O 90 4,0 C 0,0 km/h (0 Bft)
24.04.2015 09:10 10,8 C 19,4 C 65 % 1015,0 hPa 0,0 mm 0,0 km/h (0 Bft) N 360 4,5 C 0,0 km/h (0 Bft)
24.04.2015 09:15 11,1 C 19,8 C 64 % 1015,4 hPa 0,0 mm 0,0 km/h (0 Bft) NW 315 4,6 C 0,0 km/h (0 Bft)
24.04.2015 09:20 11,1 C 19,7 C 62 % 1015,4 hPa 0,0 mm 0,0 km/h (0 Bft) NO 45 4,1 C 0,0 km/h (0 Bft)
24.04.2015 09:25 11,2 C 19,5 C 61 % 1015,4 hPa 0,0 mm 0,0 km/h (0 Bft) N 360 4,0 C 0,0 km/h (0 Bft)
24.04.2015 09:30 11,5 C 19,7 C 60 % 1015,4 hPa 0,0 mm 0,0 km/h (0 Bft) W 270 4,0 C 0,0 km/h (0 Bft)
24.04.2015 09:35 11,6 C 19,1 C 59 % 1015,5 hPa 0,0 mm 0,0 km/h (0 Bft) N 360 3,9 C 0,0 km/h (0 Bft)
24.04.2015 09:40 11,5 C 19,0 C 58 % 1015,5 hPa 0,0 mm 1,0 km/h (0 Bft) N-NO 22 3,5 C 11,7 km/h (2 Bft)
24.04.2015 09:45 11,9 C 19,0 C 57 % 1015,5 hPa 0,0 mm 2,8 km/h (1 Bft) N-NO 22 3,7 C 5,7 km/h (1 Bft)
24.04.2015 09:50 12,0 C 19,2 C 57 % 1015,5 hPa 0,0 mm 2,8 km/h (1 Bft) W 270 3,8 C 4,1 km/h (1 Bft)
24.04.2015 09:55 12,4 C 19,9 C 57 % 1015,9 hPa 0,0 mm 2,1 km/h (1 Bft) N-NW 337 4,1 C 0,0 km/h (0 Bft)
24.04.2015 10:00 12,3 C 19,5 C 56 % 1015,9 hPa 0,0 mm 4,1 km/h (1 Bft) NW 315 3,8 C 11,7 km/h (2 Bft)
24.04.2015 10:05 12,2 C 19,2 C 56 % 1015,9 hPa 0,0 mm 4,9 km/h (1 Bft) NW 315 3,7 C 13,7 km/h (3 Bft)
24.04.2015 10:10 12,6 C 19,1 C 56 % 1015,9 hPa 0,0 mm 4,9 km/h (1 Bft) O-NO 67 4,1 C 9,1 km/h (2 Bft)
24.04.2015 10:15 12,7 C 19,0 C 56 % 1015,8 hPa 0,0 mm 4,4 km/h (1 Bft) NO 45 4,2 C 0,0 km/h (0 Bft)
24.04.2015 10:20 12,8 C 19,0 C 55 % 1015,8 hPa 0,0 mm 5,7 km/h (1 Bft) N-NO 22 4,0 C 7,8 km/h (2 Bft)
24.04.2015 10:25 13,0 C 18,8 C 54 % 1015,8 hPa 0,0 mm 5,7 km/h (1 Bft) NW 315 3,9 C 16,8 km/h (3 Bft)
24.04.2015 10:30 13,3 C 18,8 C 53 % 1015,8 hPa 0,0 mm 6,7 km/h (2 Bft) NW 315 3,9 C 14,5 km/h (3 Bft)
24.04.2015 10:35 13,4 C 18,9 C 53 % 1015,8 hPa 0,0 mm 6,5 km/h (2 Bft) S-SW 202 4,0 C 4,4 km/h (1 Bft)
24.04.2015 10:40 13,4 C 19,3 C 52 % 1015,8 hPa 0,0 mm 5,2 km/h (1 Bft) O-NO 67 3,7 C 11,1 km/h (2 Bft)
24.04.2015 10:45 13,4 C 19,3 C 52 % 1015,8 hPa 0,0 mm 4,9 km/h (1 Bft) N-NO 22 3,7 C 8,0 km/h (2 Bft)
24.04.2015 10:50 13,7 C 19,2 C 52 % 1015,8 hPa 0,0 mm 6,5 km/h (2 Bft) W-NW 292 4,0 C 4,1 km/h (1 Bft)
24.04.2015 10:55 13,9 C 19,3 C 52 % 1015,8 hPa 0,0 mm 6,0 km/h (2 Bft) N-NO 22 4,2 C 4,4 km/h (1 Bft)
24.04.2015 11:00 13,9 C 19,2 C 50 % 1015,8 hPa 0,0 mm 7,3 km/h (2 Bft) NW 315 3,7 C 13,7 km/h (3 Bft)
24.04.2015 11:05 14,1 C 19,1 C 51 % 1015,8 hPa 0,0 mm 7,5 km/h (2 Bft) N-NW 337 4,1 C 19,4 km/h (3 Bft)
24.04.2015 11:10 14,1 C 19,2 C 50 % 1015,8 hPa 0,0 mm 7,0 km/h (2 Bft) N-NO 22 3,8 C 6,5 km/h (2 Bft)
24.04.2015 11:15 14,1 C 19,5 C 50 % 1015,9 hPa 0,0 mm 6,2 km/h (2 Bft) NW 315 3,8 C 7,0 km/h (2 Bft)
24.04.2015 11:20 14,5 C 19,7 C 51 % 1015,9 hPa 0,0 mm 7,0 km/h (2 Bft) W 270 4,5 C 9,1 km/h (2 Bft)
24.04.2015 11:25 14,4 C 19,4 C 49 % 1015,9 hPa 0,0 mm 8,3 km/h (2 Bft) S-SW 202 3,8 C 7,0 km/h (2 Bft)
24.04.2015 11:30 14,5 C 19,4 C 49 % 1015,9 hPa 0,0 mm 9,3 km/h (2 Bft) W-NW 292 3,9 C 12,4 km/h (3 Bft)
24.04.2015 11:35 14,5 C 18,9 C 49 % 1016,0 hPa 0,0 mm 9,6 km/h (2 Bft) W-SW 247 3,9 C 11,7 km/h (2 Bft)
24.04.2015 11:40 14,6 C 19,0 C 49 % 1016,0 hPa 0,0 mm 9,6 km/h (2 Bft) W-SW 247 4,0 C 8,3 km/h (2 Bft)
24.04.2015 11:45 15,0 C 19,5 C 49 % 1016,0 hPa 0,0 mm 7,5 km/h (2 Bft) W-SW 247 4,4 C 5,7 km/h (1 Bft)
24.04.2015 11:50 15,1 C 19,9 C 49 % 1016,0 hPa 0,0 mm 7,5 km/h (2 Bft) NW 315 4,5 C 10,6 km/h (2 Bft)
24.04.2015 11:55 15,4 C 19,5 C 49 % 1015,8 hPa 0,0 mm 9,8 km/h (2 Bft) N 360 4,7 C 26,7 km/h (4 Bft)
24.04.2015 12:00 15,2 C 19,1 C 49 % 1015,8 hPa 0,0 mm 11,1 km/h (2 Bft) W-SW 247 4,6 C 9,8 km/h (2 Bft)
24.04.2015 12:05 15,3 C 19,0 C 48 % 1015,8 hPa 0,0 mm 11,7 km/h (2 Bft) NW 315 4,4 C 15,5 km/h (3 Bft)
24.04.2015 12:10 15,4 C 18,9 C 48 % 1015,8 hPa 0,0 mm 11,9 km/h (2 Bft) W-SW 247 4,4 C 10,1 km/h (2 Bft)
24.04.2015 12:15 15,4 C 19,1 C 49 % 1015,9 hPa 0,0 mm 10,9 km/h (2 Bft) NW 315 4,7 C 4,1 km/h (1 Bft)
24.04.2015 12:20 15,8 C 19,3 C 49 % 1015,9 hPa 0,0 mm 9,8 km/h (2 Bft) NW 315 5,1 C 23,6 km/h (4 Bft)
24.04.2015 12:25 16,0 C 18,9 C 48 % 1015,9 hPa 0,0 mm 11,1 km/h (2 Bft) W-NW 292 5,0 C 6,2 km/h (2 Bft)
24.04.2015 12:30 16,3 C 19,5 C 48 % 1015,9 hPa 0,0 mm 11,1 km/h (2 Bft) W-SW 247 5,3 C 11,9 km/h (2 Bft)
24.04.2015 12:35 16,3 C 19,9 C 47 % 1015,8 hPa 0,0 mm 8,3 km/h (2 Bft) N-NO 22 5,0 C 21,0 km/h (4 Bft)
24.04.2015 12:40 16,3 C 19,8 C 47 % 1015,8 hPa 0,0 mm 10,6 km/h (2 Bft) W 270 5,0 C 12,2 km/h (2 Bft)
24.04.2015 12:45 16,3 C 19,5 C 47 % 1015,8 hPa 0,0 mm 12,4 km/h (3 Bft) W 270 5,0 C 15,3 km/h (3 Bft)
24.04.2015 12:50 16,3 C 19,9 C 46 % 1015,8 hPa 0,0 mm 10,4 km/h (2 Bft) W 270 4,7 C 16,3 km/h (3 Bft)
24.04.2015 12:55 16,4 C 19,9 C 46 % 1015,6 hPa 0,0 mm 10,1 km/h (2 Bft) W-NW 292 4,8 C 15,0 km/h (3 Bft)
24.04.2015 13:00 16,6 C 19,9 C 46 % 1015,6 hPa 0,0 mm 11,1 km/h (2 Bft) NW 315 4,9 C 21,5 km/h (4 Bft)
24.04.2015 13:05 16,9 C 19,7 C 47 % 1015,6 hPa 0,0 mm 11,4 km/h (2 Bft) W-SW 247 5,5 C 14,2 km/h (3 Bft)
24.04.2015 13:10 17,0 C 19,9 C 46 % 1015,6 hPa 0,0 mm 11,9 km/h (2 Bft) NW 315 5,3 C 13,2 km/h (3 Bft)
24.04.2015 13:15 17,0 C 19,6 C 46 % 1015,5 hPa 0,0 mm 12,7 km/h (3 Bft) NW 315 5,3 C 9,1 km/h (2 Bft)
24.04.2015 13:20 16,9 C 19,3 C 46 % 1015,5 hPa 0,0 mm 12,4 km/h (3 Bft) W-SW 247 5,2 C 15,3 km/h (3 Bft)
24.04.2015 13:25 17,2 C 19,2 C 46 % 1015,5 hPa 0,0 mm 10,6 km/h (2 Bft) NW 315 5,5 C 13,7 km/h (3 Bft)
24.04.2015 13:30 17,3 C 19,1 C 46 % 1015,5 hPa 0,0 mm 10,6 km/h (2 Bft) W-SW 247 5,6 C 17,6 km/h (3 Bft)
24.04.2015 13:35 17,3 C 19,4 C 46 % 1015,1 hPa 0,0 mm 10,4 km/h (2 Bft) W-SW 247 5,6 C 19,2 km/h (3 Bft)
24.04.2015 13:40 17,5 C 19,3 C 45 % 1015,1 hPa 0,0 mm 10,4 km/h (2 Bft) NW 315 5,4 C 13,7 km/h (3 Bft)
24.04.2015 13:45 17,5 C 19,8 C 45 % 1015,1 hPa 0,0 mm 10,1 km/h (2 Bft) N-NW 337 5,4 C 19,2 km/h (3 Bft)
24.04.2015 13:50 17,7 C 20,1 C 45 % 1015,1 hPa 0,0 mm 9,6 km/h (2 Bft) NW 315 5,6 C 10,6 km/h (2 Bft)
24.04.2015 13:55 17,9 C 20,9 C 45 % 1015,0 hPa 0,0 mm 10,9 km/h (2 Bft) W-NW 292 5,8 C 17,1 km/h (3 Bft)
24.04.2015 14:00 18,0 C 21,0 C 42 % 1015,0 hPa 0,0 mm 10,1 km/h (2 Bft) W 270 4,9 C 4,9 km/h (1 Bft)
24.04.2015 14:05 18,3 C 22,0 C 43 % 1015,0 hPa 0,0 mm 7,8 km/h (2 Bft) W 270 5,5 C 7,0 km/h (2 Bft)
24.04.2015 14:10 18,5 C 22,3 C 42 % 1015,0 hPa 0,0 mm 6,7 km/h (2 Bft) W-SW 247 5,3 C 7,5 km/h (2 Bft)
24.04.2015 14:15 18,6 C 22,1 C 41 % 1014,9 hPa 0,0 mm 10,1 km/h (2 Bft) W-NW 292 5,1 C 22,8 km/h (4 Bft)
24.04.2015 14:20 18,5 C 21,7 C 39 % 1014,9 hPa 0,0 mm 11,1 km/h (2 Bft) W 270 4,3 C 13,5 km/h (3 Bft)
24.04.2015 14:25 18,6 C 21,7 C 39 % 1014,9 hPa 0,0 mm 10,9 km/h (2 Bft) NW 315 4,4 C 10,6 km/h (2 Bft)
24.04.2015 14:30 18,6 C 21,9 C 38 % 1014,9 hPa 0,0 mm 9,6 km/h (2 Bft) W-SW 247 4,0 C 9,3 km/h (2 Bft)
24.04.2015 14:35 18,6 C 22,3 C 38 % 1014,7 hPa 0,0 mm 8,5 km/h (2 Bft) W 270 4,0 C 12,9 km/h (3 Bft)
24.04.2015 14:40 18,4 C 21,9 C 37 % 1014,7 hPa 0,0 mm 10,4 km/h (2 Bft) O-NO 67 3,5 C 8,5 km/h (2 Bft)
24.04.2015 14:45 18,5 C 21,3 C 38 % 1014,7 hPa 0,0 mm 14,8 km/h (3 Bft) NW 315 3,9 C 31,6 km/h (5 Bft)
24.04.2015 14:50 18,6 C 21,1 C 38 % 1014,7 hPa 0,0 mm 14,5 km/h (3 Bft) NW 315 4,0 C 17,6 km/h (3 Bft)
24.04.2015 14:55 18,6 C 21,4 C 37 % 1014,3 hPa 0,0 mm 11,9 km/h (2 Bft) N 360 3,6 C 12,2 km/h (2 Bft)
24.04.2015 15:00 18,8 C 21,4 C 37 % 1014,3 hPa 0,0 mm 10,9 km/h (2 Bft) W-SW 247 3,8 C 16,8 km/h (3 Bft)
24.04.2015 15:05 18,6 C 21,4 C 36 % 1014,3 hPa 0,0 mm 13,2 km/h (3 Bft) W-SW 247 3,2 C 13,2 km/h (3 Bft)
24.04.2015 15:10 18,6 C 21,5 C 36 % 1014,3 hPa 0,0 mm 12,4 km/h (3 Bft) N-NW 337 3,2 C 6,0 km/h (2 Bft)
24.04.2015 15:15 18,6 C 21,4 C 36 % 1014,1 hPa 0,0 mm 12,2 km/h (2 Bft) W-NW 292 3,2 C 17,9 km/h (3 Bft)
24.04.2015 15:20 18,6 C 21,3 C 36 % 1014,1 hPa 0,0 mm 12,2 km/h (2 Bft) W 270 3,2 C 12,4 km/h (3 Bft)
24.04.2015 15:25 18,5 C 21,3 C 35 % 1014,1 hPa 0,0 mm 11,9 km/h (2 Bft) W-NW 292 2,8 C 9,3 km/h (2 Bft)
24.04.2015 15:30 18,5 C 21,4 C 35 % 1014,1 hPa 0,0 mm 12,4 km/h (3 Bft) W 270 2,8 C 20,2 km/h (4 Bft)
24.04.2015 15:35 18,4 C 21,2 C 34 % 1014,1 hPa 0,0 mm 13,5 km/h (3 Bft) W 270 2,3 C 22,3 km/h (4 Bft)
24.04.2015 15:40 18,5 C 21,2 C 34 % 1014,1 hPa 0,0 mm 13,5 km/h (3 Bft) W 270 2,3 C 13,5 km/h (3 Bft)
24.04.2015 15:45 18,7 C 21,6 C 35 % 1014,1 hPa 0,0 mm 11,7 km/h (2 Bft) W-NW 292 2,9 C 21,2 km/h (4 Bft)
24.04.2015 15:50 18,6 C 21,5 C 35 % 1014,1 hPa 0,0 mm 11,7 km/h (2 Bft) NW 315 2,8 C 17,6 km/h (3 Bft)
24.04.2015 15:55 18,7 C 21,2 C 35 % 1013,8 hPa 0,0 mm 14,2 km/h (3 Bft) W 270 2,9 C 6,0 km/h (2 Bft)
24.04.2015 16:00 18,6 C 21,3 C 35 % 1013,8 hPa 0,0 mm 14,2 km/h (3 Bft) W 270 2,8 C 18,1 km/h (3 Bft)
24.04.2015 16:05 18,8 C 21,6 C 35 % 1013,8 hPa 0,0 mm 10,4 km/h (2 Bft) W 270 3,0 C 15,5 km/h (3 Bft)
24.04.2015 16:10 18,8 C 21,8 C 35 % 1013,8 hPa 0,0 mm 10,4 km/h (2 Bft) W-SW 247 3,0 C 12,4 km/h (3 Bft)
24.04.2015 16:15 18,6 C 21,9 C 34 % 1013,6 hPa 0,0 mm 10,6 km/h (2 Bft) NW 315 2,4 C 15,0 km/h (3 Bft)
24.04.2015 16:20 18,5 C 22,0 C 34 % 1013,6 hPa 0,0 mm 10,6 km/h (2 Bft) NW 315 2,3 C 18,9 km/h (3 Bft)
24.04.2015 16:25 18,4 C 22,1 C 35 % 1013,6 hPa 0,0 mm 11,7 km/h (2 Bft) W 270 2,7 C 16,1 km/h (3 Bft)
24.04.2015 16:30 18,2 C 21,9 C 35 % 1013,6 hPa 0,0 mm 11,1 km/h (2 Bft) S-SO 157 2,5 C 10,6 km/h (2 Bft)
24.04.2015 16:35 18,2 C 21,8 C 35 % 1013,4 hPa 0,0 mm 10,9 km/h (2 Bft) NW 315 2,5 C 20,5 km/h (4 Bft)
24.04.2015 16:40 18,1 C 21,5 C 35 % 1013,4 hPa 0,0 mm 12,2 km/h (2 Bft) W-NW 292 2,4 C 13,2 km/h (3 Bft)
24.04.2015 16:45 18,3 C 21,1 C 35 % 1013,4 hPa 0,0 mm 12,2 km/h (2 Bft) N-NW 337 2,6 C 13,5 km/h (3 Bft)
24.04.2015 16:50 18,2 C 20,2 C 34 % 1013,4 hPa 0,0 mm 11,9 km/h (2 Bft) W 270 2,1 C 14,2 km/h (3 Bft)
24.04.2015 16:55 18,0 C 19,5 C 33 % 1013,2 hPa 0,0 mm 11,9 km/h (2 Bft) W-NW 292 1,5 C 14,2 km/h (3 Bft)
24.04.2015 17:00 17,9 C 19,3 C 34 % 1013,2 hPa 0,0 mm 10,4 km/h (2 Bft) W-NW 292 1,8 C 6,7 km/h (2 Bft)
24.04.2015 17:05 17,9 C 19,0 C 34 % 1013,2 hPa 0,0 mm 12,2 km/h (2 Bft) W 270 1,8 C 16,3 km/h (3 Bft)
24.04.2015 17:10 17,8 C 18,7 C 34 % 1013,2 hPa 0,0 mm 12,4 km/h (3 Bft) W-NW 292 1,7 C 12,7 km/h (3 Bft)
24.04.2015 17:15 17,8 C 18,6 C 34 % 1013,0 hPa 0,0 mm 11,9 km/h (2 Bft) W 270 1,7 C 18,9 km/h (3 Bft)
24.04.2015 17:20 17,8 C 18,4 C 35 % 1013,0 hPa 0,0 mm 12,2 km/h (2 Bft) N-NW 337 2,1 C 16,1 km/h (3 Bft)
24.04.2015 17:25 17,7 C 18,5 C 34 % 1013,0 hPa 0,0 mm 10,4 km/h (2 Bft) W-NW 292 1,6 C 10,4 km/h (2 Bft)
24.04.2015 17:30 17,7 C 18,7 C 34 % 1013,0 hPa 0,0 mm 9,8 km/h (2 Bft) N 360 1,6 C 9,6 km/h (2 Bft)
24.04.2015 17:35 17,8 C 18,6 C 35 % 1013,2 hPa 0,0 mm 10,9 km/h (2 Bft) W 270 2,1 C 15,5 km/h (3 Bft)
24.04.2015 17:40 17,7 C 18,2 C 34 % 1013,2 hPa 0,0 mm 11,7 km/h (2 Bft) W-NW 292 1,6 C 14,5 km/h (3 Bft)
24.04.2015 17:45 17,5 C 18,0 C 34 % 1013,2 hPa 0,0 mm 12,4 km/h (3 Bft) NW 315 1,5 C 17,1 km/h (3 Bft)
24.04.2015 17:50 17,5 C 18,4 C 34 % 1013,2 hPa 0,0 mm 10,4 km/h (2 Bft) W 270 1,5 C 7,8 km/h (2 Bft)
24.04.2015 17:55 17,5 C 18,5 C 35 % 1013,2 hPa 0,0 mm 11,9 km/h (2 Bft) W 270 1,9 C 11,7 km/h (2 Bft)
24.04.2015 18:00 17,4 C 18,3 C 35 % 1013,2 hPa 0,0 mm 12,2 km/h (2 Bft) NW 315 1,8 C 15,8 km/h (3 Bft)
24.04.2015 18:05 17,3 C 18,4 C 35 % 1013,2 hPa 0,0 mm 10,6 km/h (2 Bft) W-NW 292 1,7 C 10,9 km/h (2 Bft)
24.04.2015 18:10 17,3 C 18,2 C 35 % 1013,2 hPa 0,0 mm 9,8 km/h (2 Bft) W-SW 247 1,7 C 8,0 km/h (2 Bft)
24.04.2015 18:15 17,3 C 18,4 C 35 % 1013,2 hPa 0,0 mm 10,1 km/h (2 Bft) NW 315 1,7 C 7,5 km/h (2 Bft)
24.04.2015 18:20 17,1 C 18,1 C 35 % 1013,2 hPa 0,0 mm 10,4 km/h (2 Bft) W-SW 247 1,5 C 13,2 km/h (3 Bft)
24.04.2015 18:25 16,9 C 17,8 C 34 % 1013,2 hPa 0,0 mm 11,1 km/h (2 Bft) W 270 0,9 C 14,2 km/h (3 Bft)
24.04.2015 18:30 16,7 C 18,0 C 34 % 1013,2 hPa 0,0 mm 11,4 km/h (2 Bft) W 270 0,8 C 12,2 km/h (2 Bft)
24.04.2015 18:35 16,6 C 18,1 C 34 % 1013,0 hPa 0,0 mm 11,1 km/h (2 Bft) NW 315 0,7 C 7,3 km/h (2 Bft)
24.04.2015 18:40 16,4 C 18,0 C 34 % 1013,0 hPa 0,0 mm 11,1 km/h (2 Bft) W 270 0,5 C 14,8 km/h (3 Bft)
24.04.2015 18:45 16,4 C 17,6 C 34 % 1013,0 hPa 0,0 mm 10,1 km/h (2 Bft) W 270 0,5 C 16,6 km/h (3 Bft)
24.04.2015 18:50 16,6 C 17,4 C 34 % 1013,0 hPa 0,0 mm 9,6 km/h (2 Bft) W-NW 292 0,7 C 3,9 km/h (1 Bft)
24.04.2015 18:55 16,6 C 17,6 C 35 % 1013,0 hPa 0,0 mm 8,0 km/h (2 Bft) W-SW 247 1,1 C 11,1 km/h (2 Bft)
24.04.2015 19:00 16,6 C 17,6 C 35 % 1013,0 hPa 0,0 mm 7,5 km/h (2 Bft) W 270 1,1 C 7,8 km/h (2 Bft)
24.04.2015 19:05 16,5 C 17,6 C 36 % 1013,0 hPa 0,0 mm 7,8 km/h (2 Bft) W-NW 292 1,4 C 10,4 km/h (2 Bft)
24.04.2015 19:10 16,4 C 17,9 C 37 % 1013,0 hPa 0,0 mm 6,2 km/h (2 Bft) W-SW 247 1,7 C 0,0 km/h (0 Bft)
24.04.2015 19:15 16,3 C 18,0 C 37 % 1013,0 hPa 0,0 mm 5,4 km/h (1 Bft) NW 315 1,6 C 7,3 km/h (2 Bft)
24.04.2015 19:20 16,1 C 18,0 C 37 % 1013,0 hPa 0,0 mm 5,7 km/h (1 Bft) NO 45 1,4 C 6,2 km/h (2 Bft)
24.04.2015 19:25 16,1 C 18,0 C 37 % 1013,0 hPa 0,0 mm 5,7 km/h (1 Bft) W 270 1,4 C 4,9 km/h (1 Bft)
24.04.2015 19:30 15,9 C 18,0 C 37 % 1013,0 hPa 0,0 mm 5,4 km/h (1 Bft) W-NW 292 1,2 C 7,3 km/h (2 Bft)
24.04.2015 19:35 15,6 C 17,8 C 37 % 1013,2 hPa 0,0 mm 4,9 km/h (1 Bft) W-NW 292 1,0 C 5,2 km/h (1 Bft)
24.04.2015 19:40 15,2 C 17,6 C 37 % 1013,2 hPa 0,0 mm 4,4 km/h (1 Bft) W-SW 247 0,6 C 4,4 km/h (1 Bft)
24.04.2015 19:45 14,5 C 17,0 C 38 % 1013,2 hPa 0,0 mm 2,3 km/h (1 Bft) W-SW 247 0,4 C 0,0 km/h (0 Bft)
24.04.2015 19:50 14,2 C 16,2 C 38 % 1013,2 hPa 0,0 mm 1,0 km/h (0 Bft) SW 225 0,1 C 3,6 km/h (1 Bft)
24.04.2015 19:55 14,0 C 15,4 C 39 % 1013,1 hPa 0,0 mm 0,8 km/h (0 Bft) SW 225 0,3 C 3,1 km/h (1 Bft)
24.04.2015 20:00 13,7 C 14,8 C 40 % 1013,1 hPa 0,0 mm 0,5 km/h (0 Bft) S-SW 202 0,4 C 0,0 km/h (0 Bft)
24.04.2015 20:05 13,3 C 13,7 C 43 % 1013,1 hPa 0,0 mm 0,3 km/h (0 Bft) S 180 1,0 C 0,0 km/h (0 Bft)
24.04.2015 20:10 13,1 C 13,1 C 44 % 1013,1 hPa 0,0 mm 0,3 km/h (0 Bft) S-SO 157 1,1 C 0,0 km/h (0 Bft)
24.04.2015 20:15 12,9 C 12,8 C 46 % 1012,9 hPa 0,0 mm 1,3 km/h (1 Bft) S 180 1,6 C 0,0 km/h (0 Bft)
24.04.2015 20:20 12,6 C 12,6 C 46 % 1012,9 hPa 0,0 mm 2,1 km/h (1 Bft) SO 135 1,3 C 5,2 km/h (1 Bft)
24.04.2015 20:25 12,1 C 12,3 C 48 % 1012,9 hPa 0,0 mm 3,6 km/h (1 Bft) S-SO 157 1,4 C 5,4 km/h (1 Bft)
24.04.2015 20:30 11,9 C 12,1 C 49 % 1012,9 hPa 0,0 mm 4,7 km/h (1 Bft) S-SO 157 1,5 C 2,8 km/h (1 Bft)
24.04.2015 20:35 11,6 C 11,7 C 49 % 1013,1 hPa 0,0 mm 2,1 km/h (1 Bft) SO 135 1,3 C 0,0 km/h (0 Bft)
24.04.2015 20:40 11,0 C 11,1 C 51 % 1013,1 hPa 0,0 mm 0,8 km/h (0 Bft) SO 135 1,3 C 2,8 km/h (1 Bft)
24.04.2015 20:45 10,4 C 10,6 C 53 % 1013,1 hPa 0,0 mm 0,0 km/h (0 Bft) SO 135 1,2 C 0,0 km/h (0 Bft)
24.04.2015 20:50 9,8 C 9,9 C 53 % 1013,1 hPa 0,0 mm 0,3 km/h (0 Bft) O-SO 112 0,7 C 3,1 km/h (1 Bft)
24.04.2015 20:55 9,3 C 9,4 C 53 % 1013,1 hPa 0,0 mm 0,5 km/h (0 Bft) O-SO 112 0,2 C 0,0 km/h (0 Bft)
24.04.2015 21:00 9,2 C 9,5 C 55 % 1013,1 hPa 0,0 mm 0,3 km/h (0 Bft) O-SO 112 0,6 C 0,0 km/h (0 Bft)
24.04.2015 21:05 9,1 C 9,2 C 57 % 1013,1 hPa 0,0 mm 0,0 km/h (0 Bft) S-SO 157 1,0 C 0,0 km/h (0 Bft)
24.04.2015 21:10 9,5 C 9,2 C 57 % 1013,1 hPa 0,0 mm 0,0 km/h (0 Bft) O-SO 112 1,4 C 0,0 km/h (0 Bft)
24.04.2015 21:15 9,6 C 9,2 C 56 % 1013,2 hPa 0,0 mm 0,0 km/h (0 Bft) S-SO 157 1,3 C 3,9 km/h (1 Bft)
24.04.2015 21:20 8,6 C 8,3 C 56 % 1013,2 hPa 0,0 mm 0,0 km/h (0 Bft) O-SO 112 0,3 C 0,0 km/h (0 Bft)
24.04.2015 21:25 8,1 C 7,8 C 56 % 1013,2 hPa 0,0 mm 0,0 km/h (0 Bft) O 90 -0,1 C 0,0 km/h (0 Bft)
24.04.2015 21:30 8,0 C 7,7 C 56 % 1013,2 hPa 0,0 mm 0,0 km/h (0 Bft) O-SO 112 -0,2 C 0,0 km/h (0 Bft)
24.04.2015 21:35 8,6 C 8,1 C 56 % 1013,2 hPa 0,0 mm 0,0 km/h (0 Bft) SO 135 0,3 C 0,0 km/h (0 Bft)
24.04.2015 21:40 8,9 C 8,2 C 56 % 1013,2 hPa 0,0 mm 0,0 km/h (0 Bft) SO 135 0,6 C 0,0 km/h (0 Bft)
24.04.2015 21:45 8,8 C 8,2 C 56 % 1013,2 hPa 0,0 mm 0,0 km/h (0 Bft) S-SO 157 0,5 C 0,0 km/h (0 Bft)
24.04.2015 21:50 8,1 C 7,7 C 56 % 1013,2 hPa 0,0 mm 0,0 km/h (0 Bft) O-SO 112 -0,1 C 0,0 km/h (0 Bft)
24.04.2015 21:55 7,6 C 7,2 C 56 % 1013,2 hPa 0,0 mm 0,0 km/h (0 Bft) O-SO 112 -0,6 C 0,0 km/h (0 Bft)
24.04.2015 22:00 7,4 C 7,1 C 57 % 1013,2 hPa 0,0 mm 0,0 km/h (0 Bft) NW 315 -0,5 C 0,0 km/h (0 Bft)
24.04.2015 22:05 7,7 C 7,3 C 57 % 1013,2 hPa 0,0 mm 0,0 km/h (0 Bft) N-NW 337 -0,3 C 0,0 km/h (0 Bft)
24.04.2015 22:10 7,6 C 7,2 C 57 % 1013,2 hPa 0,0 mm 0,0 km/h (0 Bft) N-NW 337 -0,4 C 0,0 km/h (0 Bft)
24.04.2015 22:15 7,3 C 6,9 C 57 % 1013,1 hPa 0,0 mm 0,0 km/h (0 Bft) N-NW 337 -0,6 C 0,0 km/h (0 Bft)
24.04.2015 22:20 7,3 C 6,9 C 58 % 1013,1 hPa 0,0 mm 0,0 km/h (0 Bft) N-NW 337 -0,4 C 0,0 km/h (0 Bft)
24.04.2015 22:25 7,0 C 6,7 C 59 % 1013,1 hPa 0,0 mm 0,0 km/h (0 Bft) N-NW 337 -0,5 C 0,0 km/h (0 Bft)
24.04.2015 22:30 6,8 C 6,5 C 59 % 1013,1 hPa 0,0 mm 0,0 km/h (0 Bft) N-NW 337 -0,6 C 0,0 km/h (0 Bft)
24.04.2015 22:35 6,5 C 6,2 C 59 % 1013,1 hPa 0,0 mm 0,0 km/h (0 Bft) N-NW 337 -0,9 C 0,0 km/h (0 Bft)
24.04.2015 22:40 6,4 C 6,2 C 59 % 1013,1 hPa 0,0 mm 0,0 km/h (0 Bft) N-NW 337 -1,0 C 0,0 km/h (0 Bft)
24.04.2015 22:45 6,4 C 6,2 C 59 % 1013,1 hPa 0,0 mm 0,0 km/h (0 Bft) N-NW 337 -1,0 C 0,0 km/h (0 Bft)
24.04.2015 22:50 6,7 C 6,4 C 60 % 1013,1 hPa 0,0 mm 0,0 km/h (0 Bft) N-NW 337 -0,5 C 0,0 km/h (0 Bft)
24.04.2015 22:55 6,4 C 6,2 C 59 % 1013,1 hPa 0,0 mm 0,0 km/h (0 Bft) N-NW 337 -1,0 C 0,0 km/h (0 Bft)
24.04.2015 23:00 6,1 C 5,9 C 60 % 1013,1 hPa 0,0 mm 0,0 km/h (0 Bft) NW 315 -1,1 C 0,0 km/h (0 Bft)
24.04.2015 23:05 6,1 C 5,9 C 60 % 1013,1 hPa 0,0 mm 0,0 km/h (0 Bft) N-NW 337 -1,1 C 0,0 km/h (0 Bft)
24.04.2015 23:10 6,5 C 6,1 C 61 % 1013,1 hPa 0,0 mm 0,0 km/h (0 Bft) N-NO 22 -0,5 C 0,0 km/h (0 Bft)
24.04.2015 23:15 6,3 C 5,9 C 61 % 1013,1 hPa 0,0 mm 0,0 km/h (0 Bft) N-NO 22 -0,7 C 0,0 km/h (0 Bft)
24.04.2015 23:20 6,0 C 5,7 C 61 % 1013,1 hPa 0,0 mm 0,0 km/h (0 Bft) N-NO 22 -0,9 C 0,0 km/h (0 Bft)
24.04.2015 23:25 5,7 C 5,4 C 62 % 1013,1 hPa 0,0 mm 0,0 km/h (0 Bft) N-NO 22 -1,0 C 0,0 km/h (0 Bft)
24.04.2015 23:30 5,4 C 5,1 C 62 % 1013,1 hPa 0,0 mm 0,0 km/h (0 Bft) N-NO 22 -1,3 C 0,0 km/h (0 Bft)
24.04.2015 23:35 5,4 C 5,1 C 63 % 1013,1 hPa 0,0 mm 0,0 km/h (0 Bft) N-NO 22 -1,1 C 0,0 km/h (0 Bft)
24.04.2015 23:40 5,2 C 4,9 C 63 % 1013,1 hPa 0,0 mm 0,0 km/h (0 Bft) N-NO 22 -1,3 C 0,0 km/h (0 Bft)
24.04.2015 23:45 4,9 C 4,6 C 63 % 1013,1 hPa 0,0 mm 0,0 km/h (0 Bft) N-NO 22 -1,5 C 0,0 km/h (0 Bft)
24.04.2015 23:50 5,2 C 4,8 C 65 % 1013,1 hPa 0,0 mm 0,0 km/h (0 Bft) N-NO 22 -0,8 C 0,0 km/h (0 Bft)
24.04.2015 23:55 5,2 C 4,8 C 66 % 1013,2 hPa 0,0 mm 0,0 km/h (0 Bft) N-NO 22 -0,6 C 0,0 km/h (0 Bft)
_ Min-Zeit 05:50 05:50 16:55 20:30 - 23:55 - - 05:50 23:55
Minimum _ -1,9 C -2,3 C 33 % 1012,9 hPa - 0,0 km/h (0 Bft) - - -4,1 C 0,0 km/h (0 Bft)
_ Max-Zeit 16:10 14:35 07:25 11:50 23:55 14:45 - - 13:55 14:45
Maximum _ 18,8 C 22,3 C 87 % 1016,0 hPa 0,0 mm 14,8 km/h
NW (3 Bft)
- - 5,8 C 31,6 km/h
NW (5 Bft)
Durchschnitt _ 9,0 C 10,9 C 60 % 1014,3 hPa #0,0 mm 4,2 km/h (1 Bft) W - 0,7 C 5,3 km/h (1 Bft)